Location: Misciano
(43.5000°N, 11.9500°E)
Time: 16:09:50
(UTC+00:00)

CZ-2C R/B - Pass Details

Date: 13 August 2020
Orbit: 784 x 870 km, 98.3° (Epoch: 19 September)

Event Time Altitude Azimuth Distance (km) Brightness Sun altitude
Rises 18:44:33 0° 17° (NNE) 3,286 5.9 -5.3°
Reaches altitude 10° 18:46:56 10° 22° (NNE) 2,356 5.1 -5.6°
Maximum altitude 18:52:01 55° 100° (E) 949 2.7 -6.5°
Drops below altitude 10° 18:57:09 10° 178° (S) 2,372 4.8 -7.3°
Sets 18:59:32 0° 183° (S) 3,309 5.5 -7.7°
